STARLINK-1633, 46171

Orbit data source: Space-Track

STARLINK-1633, 46171 is a payload satellite owned by SpaceX/Seattle (US) in LEO that was launched on Tue, 18 Aug 2020 UTC via an FALCON 9 launch vehicle from the Air Force Eastern Test Range (AFETR). Payload-class satellites include a variety of spacecraft equipped with specific instruments for various scientific and technological missions. These include communications satellites like Starlink; space stations such as the ISS; scientific satellites like the Hubble; Earth observation satellites from companies like Planet Labs, Umbra, and HawkEye 360; GPS; miniature CubeSats for education and research; and military/defense satellites.

Loading next visibility...
Identifier
46171, 2020-057BG
Orbit
LEO
Country
Flag of USUS
Related business
Manufacturer
SpaceX/Seattle
Mission
Partially operational Commercial Communications
Bus & Motor
STARLINK, Unknown motor
Mass
260 kg wet, ~248 kg dry
Launch date (UTC)
2020-08-18 (6 years ago)
Launch vehicle
FALCON 9
Launch site
Air Force Eastern Test Range (AFETR)
Object type
Payload
Rocket body
Debris
Shape & HBR
Box + 1 Pan, 10.1 m
Radar Cross Section
13.562 m², Large (>1 m²)

Expand to show TLE details & history
Last TLE update: 2 days ago

TLE from 2 days ago
0 STARLINK-1633
1 46171U 20057BG  26171.50003471  .00069587  00000-0  25408-3 0  9997
2 46171  53.0307 109.3529 0002940 185.0935  44.1694 15.87789247  6006
Epoch: 2026-06-20T12:00Z
TLE epoch observation values (Epoch: 2026-06-20T12:00:02.998Z)
Latitude
-37.48327°
Longitude
-124.34566°
Altitude
319.185 km
Speed
7.717 km/s
True Right ascension
21h 37m 31s
True Declination
-37° 18' 23"
Sunlit
Object was in full shadow at epoch
Visualization orbit readout
Latitude
Unknown
Longitude
Unknown
Altitude
Unknown
Speed
Unknown
Apparent Right ascension
Unknown
Apparent Declination
Unknown
Sunlit
N/A
Visualization observer readout
Local Sidereal Time
21:41:52
Azimuth
Unknown
Elevation
Unknown
Doppler factor
Unknown
Orbital elements
Apogee altitude
310.732 km
Perigee altitude
306.8 km
Semi-major axis
6,686.903 km
Eccentricity
0.00029
Inclination
53.0307°
RAAN
109.3529°
Arg. of periapsis
185.0935°
True anomaly
44.19288°
Mean anomaly
44.1694°
Eccentric anomaly
44.18114°
Mean motion
3.96922 °/min
Orbital period
90.7 mins
BSTAR
0.00025408
Loading maneuver chart data...
Computing Atmospheric mass density...

Documentation

Showing up to 5 results
|